This is the latest recevied weather packets stored in our database for station/object AG1T-20. If no packets are shown the sender has not sent any weather packets the latest 10 day(s).
| Time | Temp. | Humidity | Pressure | Rain* | Wind** | Luminosity | Snow |
|---|---|---|---|---|---|---|---|
| 1777982405 | 11.11° C | 71% | 1011.5 hPa | 0 mm | - | 0 W/m² | - |
| 1777981805 | 10.56° C | 74% | 1011.1 hPa | 0 mm | - | 0 W/m² | - |
| 1777981205 | 11.11° C | 69% | 1011.1 hPa | 0 mm | - | 0 W/m² | - |
| 1777980604 | 12.22° C | 60% | 1011.1 hPa | 0 mm | - | 0 W/m² | - |
| 1777980005 | 12.78° C | 55% | 1011.1 hPa | 0 mm | - | 0 W/m² | - |
| 1777979405 | 13.33° C | 54% | 1011.1 hPa | 0 mm | - | 0 W/m² | - |
| 1777978804 | 13.33° C | 53% | 1011.1 hPa | 0 mm | - | 0 W/m² | - |
| 1777978205 | 13.33° C | 53% | 1011.1 hPa | 0 mm | - | 0 W/m² | - |
| 1777977605 | 12.78° C | 54% | 1011.1 hPa | 0 mm | - | 0 W/m² | - |
| 1777977005 | 11.67° C | 58% | 1011.1 hPa | 0 mm | - | 0 W/m² | - |
| 1777976405 | 11.67° C | 61% | 1011.1 hPa | 0 mm | - | 0 W/m² | - |
| 1777975804 | 11.67° C | 61% | 1011.1 hPa | 0 mm | - | 0 W/m² | - |
| 1777975205 | 12.22° C | 57% | 1011.1 hPa | 0 mm | - | 0 W/m² | - |
| 1777974605 | 11.67° C | 58% | 1011.1 hPa | 0 mm | - | 0 W/m² | - |
| 1777974004 | 11.67° C | 57% | 1011.1 hPa | 0 mm | - | 0 W/m² | - |
| 1777973405 | 12.22° C | 57% | 1011.1 hPa | 0 mm | - | 0 W/m² | - |
| 1777972804 | 12.78° C | 54% | 1011.1 hPa | 0 mm | - | 0 W/m² | - |
| 1777972205 | 12.78° C | 54% | 1011.1 hPa | 0 mm | - | 0 W/m² | - |
| 1777971605 | 12.78° C | 54% | 1011.1 hPa | 0 mm | - | 0 W/m² | - |
| 1777971005 | 12.78° C | 55% | 1011.2 hPa | 0 mm | - | 0 W/m² | - |
| 1777970405 | 13.33° C | 54% | 1011.2 hPa | 0 mm | - | 0 W/m² | - |
| 1777969805 | 13.89° C | 50% | 1011.2 hPa | 0 mm | - | 0 W/m² | - |
| 1777969205 | 14.44° C | 50% | 1011.2 hPa | 0 mm | - | 0 W/m² | - |
| 1777968605 | 14.44° C | 49% | 1011.2 hPa | 0 mm | - | 0 W/m² | - |
| 1777968005 | 14.44° C | 51% | 1011.2 hPa | 0 mm | - | 0 W/m² | - |
* Rain latest hour (hover to see other rain measurements)
** Current wind speed in m/s (hover to see current wind gust speed)